Probability
0 0 0 0 0 0 0 1 1 2 4 7 8 10 14 18 20 23 28 30 32 37 41 41 41 43 42 38 36 35 34 33 34 38 39 36 34 34 35 34 32 33 34 32
0 0 0 0 0 0 1 2 3 3 5 8 9 11 14 19 22 23 26 28 30 34 39 42 42 44 43 40 37 36 36 36 36 38 39 39 39 39 39 35 33 34 35 35
0 0 0 0 0 0 1 3 4 4 6 8 10 12 14 18 21 23 24 26 27 29 35 40 43 44 44 42 39 39 39 39 39 40 42 42 42 43 42 39 37 37 37 37
1 0 1 1 1 0 1 2 3 5 6 8 11 14 15 16 18 21 24 25 26 27 30 37 42 43 43 42 42 41 41 42 42 44 45 45 44 44 43 42 42 43 42 40
1 0 1 2 1 1 1 2 4 7 8 10 12 14 16 17 18 20 24 26 28 28 29 34 40 44 44 43 43 43 43 44 44 44 45 46 46 45 44 43 44 46 45 43
1 0 1 2 1 1 2 5 8 9 10 11 12 13 16 18 19 22 26 28 30 31 34 38 43 45 45 44 44 44 43 44 42 41 42 44 45 45 45 44 45 45 43 41
2 2 2 4 4 6 9 13 13 11 12 13 14 16 17 20 24 27 28 31 33 35 40 46 49 47 46 46 46 44 42 42 42 40 39 40 43 46 47 47 45 42 38 37
4 5 6 9 11 15 19 19 16 14 14 15 16 17 19 25 29 29 29 31 32 36 44 49 51 49 47 48 47 44 42 41 41 40 36 36 41 46 47 47 45 40 37 35
9 9 12 15 17 19 19 18 17 16 17 17 15 16 22 29 32 30 30 30 30 35 42 46 47 47 46 45 46 44 42 42 41 37 34 34 38 40 40 40 39 37 35 34
12 12 13 14 15 15 15 15 15 15 17 17 14 17 25 32 33 30 29 28 29 32 37 40 42 43 42 42 43 43 40 39 37 32 29 30 33 32 30 29 28 28 29 30
13 12 10 9 10 11 12 12 12 13 15 16 16 19 27 32 31 27 25 27 29 31 33 34 38 42 41 41 42 40 36 32 30 27 25 26 26 23 21 19 18 18 20 23
11 10 9 7 7 8 9 10 10 11 13 14 16 19 25 28 28 26 25 27 29 29 28 29 34 40 41 40 41 39 33 28 25 24 24 24 21 18 14 11 10 10 11 13
7 7 7 6 5 6 7 8 8 9 9 12 15 18 22 25 25 25 25 26 26 25 25 26 31 37 40 39 40 39 32 24 22 23 21 19 18 16 13 9 8 8 7 6
3 3 3 3 3 3 4 5 6 6 7 11 16 19 21 22 22 21 21 20 20 20 21 23 28 34 38 37 36 33 25 18 18 19 17 15 14 13 13 12 13 13 9 5
1 1 1 2 1 1 3 4 5 6 7 11 16 20 21 21 19 17 17 17 16 16 18 22 27 32 35 33 29 24 17 14 14 15 14 12 11 11 11 12 15 18 14 8
0 0 1 2 1 2 4 5 6 6 7 10 14 19 20 20 19 17 16 17 17 18 21 25 26 28 30 29 24 17 13 10 10 10 11 10 9 8 9 11 13 15 15 11
0 0 1 2 3 3 5 6 6 7 7 8 11 16 18 18 19 19 18 18 20 22 25 26 25 24 25 25 20 14 10 9 8 8 9 8 8 8 9 9 9 10 11 10
0 0 1 2 3 4 6 6 6 7 8 7 9 13 17 19 21 22 21 19 19 21 23 23 20 20 21 22 19 14 10 8 8 10 11 10 9 8 9 10 8 8 8 8
0 0 0 1 2 4 6 6 6 7 8 8 9 12 16 19 21 21 20 18 16 17 20 19 16 17 19 20 18 14 8 5 6 9 10 9 8 8 9 9 9 8 8 8
1 0 0 0 2 4 6 6 6 7 7 7 8 10 13 15 17 17 15 14 15 16 16 14 13 15 17 15 12 9 6 3 3 5 6 5 5 7 8 8 8 7 6 7
1 1 1 1 2 4 5 5 6 6 5 5 5 6 9 11 12 14 13 12 14 15 12 10 10 11 10 8 6 5 4 3 3 3 3 3 4 4 6 7 6 4 3 3
2 2 2 3 3 3 3 4 5 5 4 3 3 4 6 9 9 11 11 10 8 8 6 5 5 5 4 3 4 4 3 2 3 3 3 3 3 4 4 4 4 2 1 1
3 3 3 3 3 3 3 4 4 4 4 4 4 4 5 6 6 6 5 4 3 2 2 3 3 2 2 3 4 4 3 3 3 3 3 3 3 3 3 2 1 1 0 0
2 2 2 3 4 6 6 5 4 3 4 5 6 6 6 5 4 2 1 0 0 0 0 1 1 1 1 4 4 4 3 4 3 3 2 2 1 1 2 2 1 1 1 1
2 1 2 4 6 7 7 6 4 3 4 4 5 6 6 4 2 1 0 0 0 0 0 0 0 0 2 4 4 3 3 3 2 1 1 1 0 1 2 3 2 2 2 2
2 3 5 6 6 6 5 4 4 3 3 3 3 4 4 3 1 0 0 0 0 1 1 2 1 1 2 2 2 2 2 2 1 0 0 0 0 1 3 3 3 3 3 3
3 5 7 6 5 5 4 3 3 3 3 2 2 3 3 1 0 0 0 0 1 2 3 4 2 1 1 1 1 1 1 0 0 0 0 0 1 2 3 3 4 4 4 3
Wind_Speed
11 10 9 9 9 8 8 7 6 4 3 2 2 3 4 4 4 5 6 6 6 6 4 4 4 4 4 3 3 3 3 3 3 3 3 3 3 2 2 2 3 2 2 2
12 11 11 10 9 8 7 6 5 5 2 1 3 3 4 4 3 3 4 4 5 6 5 4 4 4 4 3 3 3 3 3 2 2 2 2 2 2 2 2 2 2 2 2
11 11 12 11 7 7 6 5 3 3 1 1 1 2 3 4 2 2 3 3 3 3 4 4 4 4 4 3 3 3 2 2 2 2 2 2 2 2 2 2 2 3 2 2
10 10 12 6 3 3 4 4 3 1 1 1 2 2 3 3 3 2 2 2 2 3 3 3 3 3 3 4 3 3 2 2 2 2 2 2 2 2 2 2 2 3 3 3
8 10 9 6 3 3 3 2 3 1 1 2 1 1 2 3 3 2 1 1 0 1 2 2 2 3 2 3 3 3 2 2 2 2 2 2 2 2 2 2 3 2 2 2
8 10 9 2 2 2 3 2 3 2 3 3 2 1 2 4 3 3 2 1 1 0 1 1 1 2 2 3 3 3 2 2 1 1 2 2 2 2 2 3 2 3 2 2
11 10 6 3 3 4 4 2 5 4 3 3 3 3 3 4 4 3 2 2 1 2 2 2 2 2 2 2 3 3 2 2 1 1 2 2 2 2 2 2 2 2 2 3
8 9 3 6 4 4 5 5 5 4 4 4 4 3 3 3 3 2 2 1 1 2 2 1 1 1 2 2 1 1 2 2 2 2 3 2 2 2 2 3 3 3 3 3
2 1 4 7 7 5 4 4 4 4 3 3 3 2 3 3 2 2 2 1 1 1 2 1 1 1 1 1 1 1 2 2 2 2 2 2 2 3 3 3 3 3 3 3
1 1 3 5 6 6 6 5 5 4 4 3 2 2 3 2 2 2 2 1 1 1 1 0 0 0 1 1 2 2 2 1 2 2 2 2 2 2 2 2 2 3 2 2
2 1 1 3 4 5 5 5 5 5 5 4 2 1 1 1 1 1 1 1 1 1 1 1 0 0 1 1 1 1 1 1 2 3 3 2 2 2 2 1 1 2 2 2
3 2 3 3 3 4 4 5 4 4 4 5 3 2 1 1 1 1 1 1 1 1 1 1 1 0 0 0 1 1 2 2 3 3 2 2 2 2 2 3 3 3 3 2
2 3 3 4 5 5 5 5 4 4 4 4 3 2 1 0 1 1 1 0 0 0 0 0 0 1 1 1 1 2 2 2 3 3 3 3 3 3 2 2 2 3 3 3
4 3 3 3 5 5 6 5 4 3 3 3 2 2 1 0 0 0 0 1 0 0 0 0 1 1 1 1 2 3 4 3 3 3 4 4 3 3 3 3 3 3 3 4
3 3 3 4 5 5 5 5 4 3 3 3 2 1 1 1 0 0 0 1 1 1 1 1 2 2 2 2 2 3 4 3 3 4 4 4 3 4 3 3 2 2 1 1
5 5 5 5 5 5 5 5 4 4 3 2 2 2 2 1 1 1 1 1 1 2 2 2 2 2 2 3 4 3 3 4 4 4 4 3 3 3 2 2 2 2 2 1
5 6 5 5 5 5 6 5 5 4 3 2 2 2 2 2 2 1 1 1 2 2 2 2 3 3 2 3 4 4 4 4 5 4 4 4 3 3 2 2 2 2 2 1
5 5 5 5 5 6 6 6 4 4 3 2 2 2 2 3 2 2 2 2 2 2 3 3 3 3 3 3 3 4 4 4 3 3 2 2 2 2 2 2 3 3 3 2
4 4 4 5 5 5 5 5 4 3 2 2 2 3 3 3 2 3 3 3 3 3 3 3 4 4 4 3 3 3 3 4 4 2 1 2 2 3 3 3 3 3 2 1
3 3 4 4 4 4 4 3 3 2 2 2 2 3 3 4 3 3 3 4 3 3 3 3 3 3 3 2 3 3 3 4 3 3 2 3 3 3 3 3 3 3 2 1
3 3 3 3 4 4 4 4 3 3 2 2 2 3 3 3 3 3 4 4 2 2 3 3 3 3 2 2 3 3 3 3 3 3 3 3 3 3 3 3 3 2 2 2
3 3 3 3 4 3 3 3 3 3 3 3 3 4 4 4 4 3 3 3 3 3 3 3 2 2 3 3 3 3 3 3 3 3 3 3 3 3 3 2 3 3 2 1
3 3 4 4 4 3 3 3 3 3 3 3 3 3 3 4 3 3 3 3 2 3 3 3 2 1 2 3 4 4 4 3 3 3 3 3 3 3 3 3 3 2 2 1
4 4 4 4 4 4 4 3 3 3 2 2 2 2 3 3 3 3 2 2 2 3 3 1 2 2 3 3 3 4 4 3 3 3 3 3 3 2 3 2 3 3 3 3
4 4 5 5 4 3 3 3 3 3 4 2 2 2 2 2 2 2 3 2 2 3 3 2 4 5 4 3 3 3 3 3 3 3 3 3 3 2 2 2 2 2 3 3
4 3 3 3 3 3 3 3 3 2 2 2 2 2 2 1 2 2 2 3 3 3 3 2 2 3 3 3 3 2 2 2 2 3 3 3 3 3 2 2 3 2 2 2
4 3 2 3 3 3 2 2 2 2 2 2 2 2 2 2 2 2 3 3 2 2 2 2 2 2 2 2 2 2 2 2 2 2 2 3 2 2 2 2 2 2 3 3
Wind_Direction
272 274 267 264 265 258 259 262 266 259 234 202 119 116 111 112 127 123 120 112 105 107 112 128 136 136 137 150 155 157 164 183 170 168 162 177 193 199 199 215 230 230 234 248
269 270 271 268 270 270 268 263 248 255 254 69 101 99 99 101 101 100 114 120 121 123 125 139 148 144 145 153 157 166 177 181 164 164 160 175 192 200 211 225 239 242 240 236
265 261 263 255 251 259 268 279 268 266 262 145 132 87 99 105 104 105 112 115 116 128 136 146 152 155 165 162 164 173 180 169 156 167 176 189 221 212 222 239 250 253 248 230
263 259 253 262 256 223 243 269 289 247 198 153 100 90 84 109 121 112 101 110 132 151 148 157 153 159 178 165 167 172 179 171 165 174 201 206 219 232 234 241 243 246 250 247
263 261 254 250 248 257 258 292 1 13 16 41 67 111 87 70 88 84 77 74 95 160 154 145 168 164 159 176 177 179 186 184 187 195 210 214 222 231 234 243 250 247 251 243
254 262 266 299 4 316 245 203 39 28 21 3 335 237 65 46 53 70 56 51 39 66 124 129 130 142 162 192 189 190 192 194 207 215 232 227 237 241 247 247 243 247 250 251
249 255 259 338 334 299 272 50 33 36 25 353 6 14 49 32 41 60 65 72 60 68 84 113 127 144 180 201 208 195 177 185 206 225 245 231 240 242 247 255 253 250 254 251
247 254 260 4 359 29 42 32 25 25 15 18 38 55 61 49 44 39 22 36 88 88 99 107 126 150 182 201 205 171 171 199 205 220 253 251 251 257 249 244 245 239 243 252
301 320 48 37 40 46 40 17 6 5 6 11 19 33 56 53 35 23 24 32 56 87 99 98 106 126 207 210 190 184 189 212 228 232 250 274 252 254 253 242 243 247 241 244
294 51 33 36 28 11 6 3 355 352 350 359 355 22 41 50 34 27 27 26 29 63 99 56 49 163 258 242 199 215 220 227 234 237 246 256 252 252 256 268 273 271 270 265
240 222 322 356 7 356 357 360 353 346 347 349 356 18 29 65 58 27 15 17 10 24 53 47 27 230 236 261 215 216 243 248 252 252 244 248 246 267 263 276 269 277 300 307
279 330 320 335 352 350 351 349 338 330 334 338 346 348 356 45 66 53 355 20 21 23 43 49 44 318 262 273 232 219 248 261 267 270 262 246 239 245 257 238 225 217 214 234
333 328 341 344 348 345 336 329 325 325 322 321 338 339 332 26 100 87 19 347 337 301 234 107 358 301 275 253 255 253 259 261 269 270 266 256 255 251 245 244 240 235 222 210
8 4 334 333 331 325 320 314 308 310 320 319 335 333 306 319 92 117 257 257 229 255 285 309 299 297 296 267 252 259 264 259 262 268 265 256 252 256 254 247 238 240 229 216
332 317 302 308 309 315 317 310 302 306 310 317 320 315 285 227 223 253 279 284 275 266 273 282 278 288 305 287 260 258 266 274 267 268 270 270 266 262 260 256 260 253 194 198
299 298 293 295 306 312 308 303 297 300 304 311 318 328 316 274 227 230 255 273 269 274 273 274 284 280 275 284 280 258 251 263 269 273 276 280 273 273 283 293 290 288 274 191
290 291 294 301 307 309 308 303 297 297 301 312 324 330 320 306 295 281 289 271 270 274 279 282 288 283 270 282 287 278 265 253 247 258 266 277 287 285 286 287 291 297 289 243
292 295 298 302 307 307 310 314 310 311 317 318 309 308 294 289 296 309 310 292 280 283 288 297 293 283 268 265 276 279 286 294 272 255 266 278 288 289 288 278 268 265 266 238
294 299 304 309 312 315 313 314 316 325 334 338 336 327 319 317 320 317 313 304 291 280 283 290 277 275 276 270 274 271 285 293 297 300 287 284 278 273 272 273 276 274 271 249
297 303 312 313 319 324 323 325 327 322 323 331 323 318 309 305 308 300 295 286 282 292 298 296 284 277 274 280 269 270 274 279 287 300 299 289 288 286 283 287 292 297 301 283
317 309 306 322 330 330 334 334 331 327 327 315 303 297 295 295 289 281 284 286 296 304 288 272 271 272 269 277 253 265 276 277 277 278 282 284 284 288 294 303 306 305 314 318
317 315 317 323 320 321 331 330 322 319 316 313 308 306 305 301 297 295 297 295 302 308 289 287 292 333 330 294 271 263 266 273 277 285 288 285 285 291 295 300 301 301 309 324
311 314 315 313 312 314 307 299 296 297 302 302 298 294 293 297 296 294 296 305 313 316 298 303 322 343 316 291 283 276 272 269 275 279 279 281 288 291 292 293 295 302 308 305
298 293 290 287 283 278 276 276 279 277 277 275 270 275 277 275 277 278 288 294 312 299 294 282 229 245 261 273 279 281 282 282 279 283 290 297 308 316 313 317 320 331 334 329
284 282 275 266 262 260 258 257 255 256 264 274 283 283 279 288 296 312 316 313 300 279 284 250 222 236 253 274 277 282 289 306 314 314 313 315 313 315 325 337 343 347 347 341
279 273 278 280 281 277 272 271 271 277 285 288 291 297 304 303 295 286 279 284 293 289 295 287 240 234 258 275 280 293 306 307 305 301 304 304 300 304 318 325 332 338 341 343
266 259 257 262 268 277 280 282 296 307 315 316 315 326 322 317 315 309 306 309 308 302 301 299 293 281 269 275 288 305 305 307 314 314 316 314 315 322 334 332 340 356 354 353